[[{"header":{"parameterUnit":"m.s-1","parameterCategory":1,"la1":30.2991,"la2":30.254,"lo1":-89.0895,"lo2":-89.0444,"dy":0.0017,"dx":0.0017,"nx":28,"ny":28,"refTime":"2023-10-03T09:00:00:Z","depth":0,"parameterNumber":2,"parameterNumberName":"U-component_of_WINDS"},"data":[0,0,0,0,0,0,0,0,0,0,0,0,0,0,0,0,0,0,0,0,0,0,0,0,0,0,0,0,0,0,0,0,0,0,0,0,0,0,0,0,0,0,0,0,0,0,0,0,0,0,0,0,0,0,0,0,0,0,-3.1344,-3.1345,0,-3.1354,-3.1354,-3.1354,-3.1263,-3.126,-3.1258,-3.1255,-3.1264,-3.1266,-3.1269,0,0,0,0,0,0,0,0,0,0,0,0,0,-3.1247,-3.1249,-3.1344,-3.1345,-3.1345,-3.1354,-3.1354,-3.1354,-3.1263,-3.126,-3.1257,-3.1254,-3.1263,-3.1266,-3.1269,0,0,0,0,0,0,0,0,0,0,0,0,0,-3.1276,-3.125,-3.1344,-3.13,-3.1297,-3.1354,-3.1354,-3.1354,-3.1264,-3.126,-3.1256,-3.1253,-3.1262,-3.1266,-3.1269,-3.1369,0,0,-3.1281,-3.1283,0,0,0,0,0,0,0,0,-3.1274,-3.128,-3.1307,-3.1304,-3.1299,-3.1303,-3.1322,-3.1359,-3.1265,-3.1276,-3.1255,-3.1251,-3.128,-3.1282,-3.1292,-3.1369,-3.137,-3.1282,-3.1284,-3.1286,-3.1287,0,0,0,0,0,0,0,-3.1272,-3.1279,-3.1348,-3.1307,-3.1303,-3.128,-3.128,-3.1329,-3.1299,-3.1275,-3.1268,-3.1271,-3.1277,-3.1288,-3.1291,-3.137,-3.1281,-3.1285,-3.1287,-3.1289,-3.1528,-3.1531,0,0,0,0,0,0,-3.1277,-3.1278,-3.1348,-3.1348,-3.1277,-3.1285,-3.1285,-3.1306,-3.1298,-3.1293,-3.1274,-3.1266,-3.1284,-3.1287,-3.1291,-3.1406,-3.1286,-3.1289,-3.1291,-3.1524,-3.1529,-3.1533,0,0,0,0,0,0,-3.1275,-3.1284,-3.1347,-3.1311,-3.1318,-3.129,-3.1315,-3.1308,-3.1319,-3.1297,-3.1292,-3.1291,-3.1281,-3.1286,-3.135,-3.1405,-3.1291,-3.1294,-3.1519,-3.1525,-3.1531,-3.1637,0,0,0,0,0,0,-3.1272,-3.1284,-3.1321,-3.1313,-3.132,-3.1407,-3.1318,-3.1311,-3.1326,-3.1316,-3.1312,-3.1308,-3.1278,-3.1345,-3.1354,-3.1408,-3.1297,-3.1514,-3.1522,-3.1529,-3.1629,-3.1646,-3.1661,0,0,0,0,0,-3.1269,-3.1351,-3.1324,-3.1333,-3.1367,-3.141,-3.1414,-3.1379,-3.1331,-3.1368,-3.1354,-3.1308,-3.1398,-3.1352,-3.1362,-3.1418,-3.151,-3.1519,-3.1528,-3.1621,-3.1643,-3.1661,0,0,0,0,0,0,-3.1367,-3.1349,-3.1319,-3.14,-3.1407,-3.1394,-3.144,-3.1403,-3.1423,-3.1413,-3.1368,-3.1368,-3.1439,-3.1435,-3.1384,-3.1513,-3.1446,-3.1457,-3.1513,-3.1533,-3.1549,-3.1548,-3.1301,0,0,0,0,0,-3.1398,-3.1435,-3.1417,-3.1491,-3.1496,-3.1468,-3.1486,-3.1458,-3.1463,-3.1466,-3.1456,-3.1463,-3.1492,-3.1513,-3.1539,-3.1628,-3.1625,-3.1672,-3.1688,-3.1701,-3.1711,-3.1757,-3.1777,-3.1563,-3.1563,-3.1562,0,0,-3.1462,-3.1457,-3.1483,-3.151,-3.1512,-3.1551,-3.1471,-3.1516,-3.1544,-3.1472,-3.1532,-3.1525,-3.153,-3.1607,-3.164,-3.1605,-3.177,-3.1713,-3.1724,-3.1726,-3.1769,-3.1789,-3.1807,-3.1569,-3.1568,-3.1567,0,0,-3.1599,-3.1599,-3.166,-3.1664,-3.1668,-3.1649,-3.1664,-3.1657,-3.165,-3.1709,-3.1656,-3.1689,-3.1741,-3.1746,-3.1756,-3.1894,-3.1852,-3.1904,-3.1989,-3.2034,-3.2051,-3.2066,-3.2114,-3.2132,-3.1915,-3.1915,-3.1915,0,-3.1678,-3.1734,-3.1696,-3.1744,-3.1757,-3.1695,-3.1755,-3.1761,-3.1774,-3.1784,-3.1746,-3.1809,-3.1808,-3.1885,-3.1919,-3.1929,-3.1944,-3.1904,-3.2052,-3.2066,-3.2079,-3.2125,-3.2143,-3.1921,-3.192,-3.192,-3.1919,0,-3.1831,-3.1871,-3.192,-3.1934,-3.1952,-3.2007,-3.1976,-3.2,-3.197,-3.1955,-3.2016,-3.2012,-3.2036,-3.2053,-3.2025,-3.2125,-3.2104,-3.2059,-3.199,-3.2106,-3.2148,-3.2166,-3.193,-3.1928,-3.1926,-3.1924,0,0,-3.2028,-3.2021,-3.2039,-3.2044,-3.2044,-3.2074,-3.2126,-3.2149,-3.217,-3.2181,-3.2222,-3.2268,-3.2227,-3.2238,-3.221,-3.225,-3.2358,-3.22,-3.2199,-3.2228,-3.2468,-3.25,-3.2521,-3.2331,-3.2334,-3.2337,-3.2467,0,-3.216,-3.2248,-3.2215,-3.2304,-3.234,-3.2281,-3.2326,-3.233,-3.2318,-3.2346,-3.2332,-3.2365,-3.2308,-3.2314,-3.2351,-3.2338,-3.2406,-3.2328,-3.2368,-3.237,-3.2367,-3.2543,-3.2578,-3.2701,-3.2483,-3.2486,-3.2488,0,-3.2326,-3.2344,-3.2437,-3.243,-3.2444,-3.2485,-3.2503,-3.2532,-3.2536,-3.2523,-3.2536,-3.2499,-3.2548,-3.2481,-3.2547,-3.2495,-3.251,-3.2505,-3.2509,-3.2511,-3.2435,-3.2548,-3.274,-3.2758,-3.2514,-3.2512,-3.251,0,-3.2459,-3.2507,-3.2568,-3.2574,-3.2569,-3.2598,-3.2597,-3.2598,-3.2614,-3.263,-3.264,-3.2662,-3.2674,-3.2692,-3.2662,-3.2616,-3.2733,-3.2663,-3.2723,-3.2724,-3.2749,-3.2748,-3.2945,-3.2761,-3.2761,-3.2761,-3.276,0,-3.261,-3.2669,-3.2628,-3.2665,-3.2729,-3.2691,-3.2755,-3.2748,-3.2749,-3.2783,-3.2734,-3.2768,-3.2727,-3.2757,-3.2734,-3.2792,-3.2798,-3.2789,-3.2782,-3.2793,-3.2794,-3.2801,-3.2791,-3.2766,-3.2765,-3.2764,-3.2763,0,-3.2769,-3.2744,-3.2807,-3.2796,-3.2795,-3.2843,-3.2833,-3.2867,-3.2851,-3.2896,-3.2904,-3.2879,-3.2911,-3.2884,-3.2915,-3.2899,-3.2977,-3.2958,-3.2975,-3.2969,-3.3031,-3.3026,-3.3238,-3.3264,-3.3066,-3.3067,-3.3069,0,-3.2866,-3.291,-3.2904,-3.2924,-3.2926,-3.2958,-3.2974,-3.2938,-3.2957,-3.2965,-3.2998,-3.3026,-3.3047,-3.3101,-3.3085,-3.3109,-3.309,-3.3163,-3.3093,-3.3102,-3.3089,-3.3087,-3.309,-3.3177,-3.3179,-3.3181,-3.3182,0,-3.304,-3.3026,-3.3051,-3.3072,-3.3093,-3.3108,-3.3119,-3.3138,-3.3101,-3.3124,-3.3157,-3.3173,-3.3204,-3.3233,-3.3251,-3.3249,-3.321,-3.3205,-3.322,-3.3231,-3.3238,-3.3234,-3.3013,-3.32,-3.3198,-3.3197,-3.3196,-3.3195,-3.317,-3.3206,-3.3208,-3.3237,-3.3242,-3.3253,-3.3284,-3.3272,-3.3299,-3.3322,-3.3299,-3.3338,-3.334,-3.3361,-3.3364,-3.3394,-3.3363,-3.3386,-3.3391,-3.3397,-3.3405,-3.3235,-3.3397,-3.3397,-3.3396,-3.3396,-3.3396,0,-3.3341,-3.3339,-3.3367,-3.3384,-3.3407,-3.3368,-3.3378,-3.34,-3.3435,-3.3441,-3.3462,-3.3499,-3.3526,-3.3513,-3.3536,-3.3563,-3.3545,-3.357,-3.3567,-3.3567,-3.3432,-3.3416,-3.3584,-3.3584,-3.3584,-3.3584,-3.3584,-3.3584,-3.3433,-3.3491,-3.3477,-3.3537,-3.3534,-3.3572,-3.3581,-3.3591,-3.3595,-3.3639,-3.3661,-3.3652,-3.365,-3.3673,-3.3696,-3.3692,-3.3702,-3.3733,-3.3722,-3.3596,-3.3577,-3.3559,-3.3544,-3.3736,-3.3737,-3.3855,-3.3856,-3.3857]},{"header":{"parameterUnit":"m.s-1","parameterCategory":1,"la1":30.2991,"la2":30.254,"lo1":-89.0895,"lo2":-89.0444,"dy":0.0017,"dx":0.0017,"nx":28,"ny":28,"refTime":"2023-10-03T09:00:00:Z","depth":0,"parameterNumber":3,"parameterNumberName":"V-component_of_WINDS"},"data":[0,0,0,0,0,0,0,0,0,0,0,0,0,0,0,0,0,0,0,0,0,0,0,0,0,0,0,0,0,0,0,0,0,0,0,0,0,0,0,0,0,0,0,0,0,0,0,0,0,0,0,0,0,0,0,0,0,0,1.6457,1.6457,0,1.6462,1.6462,1.6462,1.6446,1.6446,1.6445,1.6445,1.6449,1.6449,1.645,0,0,0,0,0,0,0,0,0,0,0,0,0,1.6434,1.6434,1.6457,1.6457,1.6457,1.6462,1.6462,1.6462,1.6446,1.6446,1.6445,1.6444,1.6448,1.6449,1.645,0,0,0,0,0,0,0,0,0,0,0,0,0,1.6442,1.6435,1.6457,1.645,1.6449,1.6462,1.6462,1.6462,1.6446,1.6446,1.6445,1.6444,1.6448,1.6449,1.645,1.6469,0,0,1.6452,1.6453,0,0,0,0,0,0,0,0,1.6441,1.6443,1.6451,1.6451,1.645,1.6453,1.6455,1.6465,1.6446,1.6447,1.6445,1.6444,1.645,1.6451,1.6454,1.647,1.647,1.6452,1.6453,1.6453,1.6454,0,0,0,0,0,0,0,1.6441,1.6442,1.6459,1.6451,1.645,1.6446,1.6447,1.6457,1.6453,1.6447,1.6446,1.6447,1.645,1.6453,1.6453,1.647,1.6452,1.6453,1.6454,1.6454,1.6503,1.6503,0,0,0,0,0,0,1.6441,1.6442,1.6459,1.6459,1.6444,1.6447,1.6448,1.6453,1.6453,1.6452,1.6448,1.6446,1.6452,1.6453,1.6454,1.6476,1.6453,1.6454,1.6455,1.6502,1.6503,1.6504,0,0,0,0,0,0,1.6441,1.6443,1.6459,1.645,1.6452,1.6449,1.6454,1.6453,1.6456,1.6453,1.6452,1.6451,1.6451,1.6452,1.6466,1.6476,1.6454,1.6455,1.6501,1.6502,1.6503,1.6522,0,0,0,0,0,0,1.644,1.6443,1.645,1.6451,1.6453,1.6471,1.6455,1.6454,1.6457,1.6456,1.6456,1.6455,1.6451,1.6465,1.6467,1.6477,1.6456,1.65,1.6501,1.6503,1.6521,1.6524,1.6527,0,0,0,0,0,1.644,1.6455,1.6451,1.6453,1.6462,1.6472,1.6473,1.6467,1.6458,1.6466,1.6464,1.6455,1.6475,1.6466,1.6468,1.6479,1.6499,1.6501,1.6503,1.6519,1.6523,1.6527,0,0,0,0,0,0,1.6456,1.6455,1.645,1.6467,1.6469,1.6469,1.6478,1.6472,1.6477,1.6475,1.6467,1.6468,1.6482,1.6482,1.6472,1.6498,1.6486,1.6488,1.6497,1.6501,1.6504,1.6503,1.6457,0,0,0,0,0,1.6462,1.647,1.6469,1.6483,1.6485,1.6481,1.6485,1.6481,1.6483,1.6484,1.6484,1.6486,1.6493,1.6497,1.6503,1.6521,1.6521,1.653,1.6533,1.6535,1.6537,1.6546,1.655,1.6509,1.6509,1.6509,0,0,1.6473,1.6474,1.6479,1.6487,1.6488,1.6497,1.6482,1.6492,1.6498,1.6486,1.6498,1.6498,1.65,1.6516,1.6523,1.6516,1.6548,1.6537,1.654,1.654,1.6548,1.6552,1.6556,1.6511,1.651,1.651,0,0,1.6498,1.6499,1.6512,1.6514,1.6517,1.6514,1.6517,1.6518,1.6518,1.653,1.6521,1.6528,1.654,1.6542,1.6545,1.6572,1.6564,1.6574,1.6589,1.6598,1.6602,1.6604,1.6613,1.6617,1.6576,1.6576,1.6576,0,1.6511,1.6524,1.6519,1.6529,1.6532,1.6523,1.6535,1.6537,1.6542,1.6544,1.6537,1.6552,1.6553,1.6569,1.6575,1.6578,1.6581,1.6573,1.6602,1.6604,1.6607,1.6615,1.6619,1.6577,1.6577,1.6577,1.6577,0,1.654,1.6549,1.6559,1.6564,1.6568,1.658,1.6576,1.6582,1.6577,1.6576,1.6589,1.659,1.6596,1.6599,1.6595,1.6615,1.6611,1.6603,1.659,1.6612,1.662,1.6623,1.6579,1.6578,1.6578,1.6578,0,0,1.6573,1.6577,1.658,1.6582,1.6586,1.6592,1.6603,1.661,1.6614,1.6618,1.6627,1.6638,1.6631,1.6633,1.6629,1.6638,1.6658,1.6629,1.6629,1.6633,1.6679,1.6685,1.6688,1.6654,1.6654,1.6655,1.6679,0,1.6597,1.6616,1.6613,1.6631,1.6639,1.663,1.664,1.6643,1.6642,1.6649,1.6648,1.6655,1.6646,1.6647,1.6655,1.6654,1.6667,1.6652,1.6661,1.6661,1.6659,1.6693,1.6698,1.6721,1.6682,1.6683,1.6683,0,1.6627,1.6633,1.6652,1.6654,1.6658,1.6666,1.6672,1.6679,1.6682,1.6681,1.6685,1.6679,1.669,1.6678,1.6692,1.6682,1.6686,1.6686,1.6687,1.6686,1.6673,1.6692,1.6728,1.6731,1.6688,1.6687,1.6687,0,1.6649,1.6661,1.6675,1.6677,1.668,1.6686,1.6688,1.669,1.6694,1.67,1.6702,1.6709,1.6712,1.6717,1.6713,1.6705,1.6728,1.6716,1.6727,1.6727,1.6731,1.673,1.6767,1.6735,1.6735,1.6735,1.6735,0,1.6675,1.6687,1.6684,1.6692,1.6706,1.6701,1.6715,1.6715,1.6718,1.6725,1.6719,1.6726,1.6721,1.6728,1.6726,1.6738,1.674,1.6739,1.6738,1.6739,1.6739,1.674,1.6738,1.6736,1.6736,1.6736,1.6735,0,1.6701,1.67,1.6713,1.6716,1.6716,1.6726,1.6728,1.6735,1.6734,1.6744,1.6746,1.6745,1.6753,1.675,1.6759,1.6757,1.6772,1.677,1.6771,1.677,1.6781,1.678,1.6818,1.6823,1.6789,1.679,1.679,0,1.6717,1.6726,1.673,1.6735,1.6737,1.6745,1.675,1.6746,1.6751,1.6756,1.6763,1.677,1.6776,1.6789,1.6789,1.6795,1.6792,1.6805,1.6793,1.6794,1.6791,1.679,1.6791,1.6807,1.6808,1.6808,1.6808,0,1.6746,1.6745,1.6752,1.6759,1.6765,1.677,1.6775,1.6779,1.6776,1.6782,1.679,1.6795,1.6804,1.6811,1.6817,1.6819,1.6813,1.6812,1.6815,1.6815,1.6816,1.6815,1.6777,1.6811,1.6811,1.6811,1.681,1.681,1.6767,1.6775,1.6778,1.6786,1.679,1.6794,1.6802,1.6802,1.6809,1.6816,1.6814,1.6824,1.6827,1.6835,1.6837,1.6844,1.6839,1.6843,1.6844,1.6845,1.6846,1.6816,1.6845,1.6845,1.6845,1.6845,1.6845,0,1.6795,1.6797,1.6805,1.6812,1.6818,1.6813,1.6818,1.6823,1.6832,1.6836,1.6842,1.6852,1.6859,1.686,1.6867,1.6872,1.687,1.6874,1.6873,1.6873,1.685,1.6847,1.6876,1.6876,1.6876,1.6876,1.6876,1.6876,1.681,1.6822,1.6822,1.6837,1.6839,1.6848,1.6852,1.6856,1.6859,1.687,1.6876,1.6877,1.688,1.6887,1.6893,1.6893,1.6896,1.6901,1.69,1.6878,1.6875,1.6872,1.6868,1.6902,1.6902,1.6922,1.6922,1.6922]}]]